Location: Caltech
(34.1382°N, 118.1253°W)
Time: 08:26:43
(UTC-07:00)

Daily predictions for brighter satellites

Satellite Brightness Start Highest point End
(mag) Time Altitude Azimuth Time Altitude Azimuth Time Altitude Azimuth
deb Centaur AC-2 4.4 19:53:22 10° WSW 19:57:32 50° S 20:01:59 10° ESE
Cosmos 1437 3.6 19:57:17 10° SSW 20:00:24 53° W 20:03:32 10° N
NOSS 0 Rocket 4.4 19:58:30 10° S 20:04:06 38° ESE 20:09:46 10° NE
NOSS 3-3 (A) 3.9 20:00:20 10° SSW 20:06:14 79° ESE 20:12:39 10° NNE
NOSS 3-3 (C) 3.9 20:00:26 10° SSW 20:06:20 78° ESE 20:12:44 10° NNE
Cosmos 2360 Rocket 4.3 20:01:37 10° SW 20:06:34 31° WNW 20:11:34 10° N
GPS 2-05 Rocket1 4.3 20:03:45 10° W 20:06:40 27° SSW 20:09:34 10° SE
Cosmos 494 Rocket 4.1 20:03:03 10° NNW 20:08:17 85° WSW 20:13:32 10° SSE
FREGAT/IRIS 3.3 20:05:34 10° S 20:08:28 56° W 20:11:22 10° NNW
Cosmos 1980 4.3 20:03:42 10° SSE 20:08:44 34° ESE 20:13:47 10° NE
Cosmos 1666 Rocket 4.0 20:06:37 10° N 20:10:51 42° E 20:15:04 10° SSE
USA 186 2.3 20:12:04 16° ESE 20:13:02 21° ENE 20:14:50 10° NNE
ERS-2 2.5 20:10:04 10° SSE 20:13:34 45° ENE 20:17:05 10° N
Cosmos 1455 2.7 20:11:21 10° SSE 20:14:53 38° E 20:18:28 10° NNE
CZ-2D R/B 3.1 20:11:29 10° SSE 20:15:16 75° ENE 20:19:04 10° N
Cosmos 1151 Rocket 4.1 20:13:05 10° SE 20:16:27 23° E 20:19:50 10° NE
Resurs 1-3 4.4 20:13:10 10° SE 20:16:59 32° ENE 20:20:53 10° N
Cosmos 2333 Rocket 2.1 20:13:57 10° SSW 20:19:35 74° ESE 20:25:14 10° NNE
Sich 1 3.0 20:16:29 10° N 20:20:44 61° E 20:24:55 10° SSE
ATLAS 2A CENTAUR R/B 3.8 20:16:34 10° W 20:22:16 24° SSW 20:24:24 12° SSE
Meteor 1-27 4.3 20:17:42 10° S 20:23:17 55° E 20:28:49 10° NNE
COSMOS 2428 3.5 20:19:10 10° SW 20:24:47 57° WNW 20:30:26 10° NNE
Meteor 2-21 Rocket 4.4 20:18:54 10° S 20:24:57 70° E 20:31:06 10° NNE
YAOGAN 6 2.9 20:22:58 13° SSE 20:25:58 45° ENE 20:29:27 10° N
Cosmos 1892 2.8 20:22:38 10° N 20:26:28 56° E 20:30:13 10° SSE
Cosmos 1844 Rocket 2.7 20:20:57 10° NNW 20:26:39 78° ENE 20:32:17 10° SSE
Envisat 3.1 20:24:25 10° S 20:29:30 81° WSW 20:34:36 10° NNW
Cosmos 2251 Rocket 3.5 20:28:08 10° NNW 20:33:33 88° E 20:38:53 10° SSE
Cosmos 1844 3.7 20:28:02 10° NNW 20:33:44 69° ENE 20:38:39 14° SSE
Cosmos 2219 Rocket 2.5 20:28:11 10° SSW 20:33:48 70° WNW 20:39:28 10° NNE
Meteor 2-2 Rocket 4.5 20:30:08 10° S 20:35:56 80° W 20:41:54 10° N
Cosmos 2237 Rocket 2.2 20:30:31 10° S 20:35:58 55° ESE 20:41:28 10° NNE
Genesis I 4.4 20:34:57 10° N 20:38:34 29° NE 20:40:01 23° E
Cosmos 2056 Rocket 4.4 20:37:10 14° SSE 20:40:56 28° E 20:45:30 10° NE
Cosmos 1633 Rocket 2.9 20:38:31 10° N 20:42:52 83° E 20:46:57 12° S
Cosmos 2098 Rocket 4.0 20:47:46 27° ESE 20:48:41 30° E 20:52:19 10° NNE
Cosmos 2278 Rocket 2.8 20:44:08 10° N 20:49:24 38° ENE 20:51:44 27° ESE
Cosmos 1515 Rocket 3.5 20:45:49 10° S 20:50:13 65° E 20:54:39 10° NNE
NOAA 11 4.4 20:47:34 23° SE 20:50:48 50° ENE 20:56:07 10° N
Nadezhda 3 Rocket 4.2 20:46:52 10° N 20:53:11 74° W 20:59:30 10° S
Cosmos 2228 Rocket 2.9 20:51:18 10° S 20:55:40 76° E 21:00:03 10° N
Cosmos 1624 Rocket 4.3 20:53:53 15° SSE 20:57:50 43° ESE 21:02:45 10° NNE
ASTRO E2 3.4 20:57:25 10° SW 21:00:58 35° SSE 21:00:58 35° SSE
Cosmos 1825 2.6 21:01:13 10° N 21:04:39 43° ENE 21:04:39 43° ENE
Sakura Rocket 3.4 21:04:06 10° WSW 21:08:24 39° S 21:08:34 39° S
ATLAS CENTAUR R/B 3.6 21:07:35 10° WSW 21:10:34 23° NW 21:13:39 10° N
OAO 2 Rocket 3.5 21:06:08 10° W 21:11:15 60° SSW 21:12:37 44° SE
Spot 2 Rocket 3.5 21:09:25 26° S 21:12:20 85° WSW 21:17:27 10° NNW
Resurs 01 Rocket 2.5 21:17:10 19° SSW 21:20:06 46° W 21:24:23 10° NNW
ATLAS 2AS CENTAUR R/B 2.8 21:16:07 10° NNW 21:23:57 86° WSW 21:27:11 37° SSE
GEOS 3 Rocket 3.9 21:20:21 10° NE 21:24:42 46° E 21:24:42 46° E
Cosmos 1470 Rocket 4.0 21:21:46 10° NNW 21:26:07 60° W 21:27:42 36° SSW
SL-16 R/B 2.1 21:24:48 45° SSE 21:26:13 58° ESE 21:31:46 10° NNE
ARGOS 3.2 21:29:47 53° E 21:30:14 55° ENE 21:35:27 10° N
OAO 3 Copernicus 4.1 21:25:23 10° WSW 21:30:24 72° SSE 21:30:35 71° SE
Cosmos 1869 3.5 21:30:46 58° SW 21:31:20 67° W 21:35:20 10° N
MetOp-B 4.3 21:32:28 50° E 21:32:38 50° ENE 21:37:47 10° N
Cosmos 1727 Rocket 3.8 21:36:02 10° N 21:42:12 70° E 21:42:59 63° SE
ATLAS 2A CENTAUR R/B 3.8 21:24:04 10° WSW 21:42:16 49° S 21:44:51 42° SE
Meteor 2-10 Rocket 3.8 21:42:55 36° SSW 21:45:23 77° W 21:51:13 10° N
Cosmos 1408 4.0 21:43:53 10° NNW 21:47:03 35° W 21:47:03 35° W
ERS-1 Rocket 3.4 21:50:08 51° NE 21:50:08 51° NE 21:54:14 10° N
USA 81 4.1 21:48:59 10° N 21:53:44 70° NNE 21:53:44 70° NNE
NOSS 3-4 (A) 4.1 21:47:24 10° NNW 21:54:21 51° NE 21:55:20 49° E
NOSS 3-4 (C) 4.1 21:47:31 10° NNW 21:54:26 51° NE 21:55:26 48° E
Cosmos 407 Rocket 3.8 21:50:31 10° N 21:54:44 55° NNE 21:54:44 55° NNE
H-2A R/B 2.2 21:57:48 63° NNE 21:57:48 63° NNE 22:02:02 10° N
Cosmos 2344 3.4 21:51:03 10° SSW 21:58:45 72° ESE 22:06:39 10° NE
Cosmos 2297 4.0 21:56:24 10° NNW 22:01:18 55° NE 22:01:18 55° NE
USA 267 3.1 21:57:12 10° NE 22:03:46 80° SE 22:10:18 10° SW
Cosmos 2369 Rocket 4.4 22:05:34 10° NNE 22:07:06 12° NE 22:07:06 12° NE
Terra 3.9 22:27:10 19° NNE 22:27:10 19° NNE 22:28:42 10° N
CZ-4C R/B 4.3 22:29:46 16° NNE 22:29:46 16° NNE 22:30:54 10° NNE
Cosmos 2278 Rocket 3.9 22:28:42 10° NW 22:33:11 24° WSW 22:33:37 24° WSW
ATLAS 5 CENTAUR R/B 4.4 22:32:19 10° N 22:35:41 17° NE 22:35:41 17° NE
Centaur D-1A AC-31 4.0 22:43:11 10° WSW 22:46:00 19° WSW 22:46:00 19° WSW
Lacrosse 5 4.4 22:47:07 10° N 22:48:55 14° NNE 22:48:55 14° NNE
BREEZE-M DEB (TANK) 4.4 23:00:38 10° NW 23:19:22 64° N 23:19:22 64° N
Cosmos 1943 Rocket 4.3 23:15:47 10° N 23:17:39 20° N 23:17:39 20° N
Cosmos 2369 Rocket 4.4 23:47:06 10° NNW 23:48:53 21° NNW 23:48:53 21° NNW
